Provincetown, Massachusetts, United States (02657)
Lat: 42.06N, Lon: 70.18W
Wx Zone: MAZ022
Local Info
Past Weather Observations for Today

NOTE: This archive is for the closest National Weather Service station to Provincetown. Information may differ from the station used for current weather conditions.

Click here for Long-term Archive

Time Weather Temperature Dewpoint Humidity Pressure Winds Precip Visibility
22:15
Overcast
N/A N/A N/A 29.59 in
(1002 mb)
N 6.9 mph
(N 11 kph)
- 10SM
21:55
Overcast
N/A N/A N/A 29.59 in
(1002 mb)
NNE 5.8 mph
(NNE 9 kph)
- 10SM
21:35
Overcast
N/A N/A N/A 29.59 in
(1002 mb)
NE 9.2 mph
(NE 15 kph)
- 10SM
21:15
Overcast
N/A N/A N/A 29.59 in
(1002 mb)
NNE 10.4 mph
(NNE 17 kph)
- 10SM
20:55
Mostly Cloudy
N/A N/A N/A 29.59 in
(1002 mb)
N 12.7 mph
(N 20 kph)
- 9SM
20:35
Overcast
N/A N/A N/A 29.59 in
(1002 mb)
NNW 18.4 mph
(NNW 30 kph)
- 6SM
20:15
Mostly Cloudy
N/A N/A N/A 29.56 in
(1001 mb)
NNW 15 mph
(NNW 24 kph)
- 10SM
19:55
Overcast
N/A N/A N/A 29.56 in
(1001 mb)
N 11.5 mph
(N 19 kph)
- 8SM
19:35
Mostly Cloudy
N/A N/A N/A 29.56 in
(1001 mb)
NW 8.1 mph
(NW 13 kph)
- 10SM
19:15
Mostly Cloudy
N/A N/A N/A 29.56 in
(1001 mb)
WNW 10.4 mph
(WNW 17 kph)
- 10SM
18:55
Mostly Cloudy
N/A N/A N/A 29.56 in
(1001 mb)
WNW 6.9 mph
(WNW 11 kph)
- 10SM
18:35
Mostly Cloudy
N/A N/A N/A 29.56 in
(1001 mb)
WNW 8.1 mph
(WNW 13 kph)
- 10SM
18:15
Mostly Cloudy
N/A N/A N/A 29.56 in
(1001 mb)
WNW 8.1 mph
(WNW 13 kph)
- 10SM
17:55
Mostly Cloudy
54°F / 12°C 39°F / 4°C 58% 29.56 in
(1001 mb)
W 6.9 mph
(W 11 kph)
- 10SM
17:35
Overcast
N/A N/A N/A 29.56 in
(1001 mb)
WNW 6.9 mph
(WNW 11 kph)
- 10SM
17:15
Overcast
N/A N/A N/A 29.56 in
(1001 mb)
NW 4.6 mph
(NW 7 kph)
- 10SM
16:55
Overcast
N/A N/A N/A 29.56 in
(1001 mb)
NNW 4.6 mph
(NNW 7 kph)
- 10SM
16:35
Overcast
N/A N/A N/A 29.56 in
(1001 mb)
NE 5.8 mph
(NE 9 kph)
- 10SM
16:15
Overcast
N/A N/A N/A 29.56 in
(1001 mb)
NE 4.6 mph
(NE 7 kph)
- 10SM
15:55
Overcast
N/A N/A N/A 29.56 in
(1001 mb)
NE 8.1 mph
(NE 13 kph)
- 10SM
15:35
Overcast
N/A N/A N/A 29.53 in
(1000 mb)
N 5.8 mph
(N 9 kph)
- 10SM
15:15
Overcast
N/A N/A N/A 29.53 in
(1000 mb)
NNW 5.8 mph
(NNW 9 kph)
- 10SM
14:55
Overcast
N/A N/A N/A 29.53 in
(1000 mb)
NW 4.6 mph
(NW 7 kph)
- 10SM
14:35
Overcast
N/A N/A N/A 29.53 in
(1000 mb)
W 5.8 mph
(W 9 kph)
- 10SM
14:15
Overcast
N/A N/A N/A 29.53 in
(1000 mb)
W 5.8 mph
(W 9 kph)
- 10SM
13:55
Overcast
N/A N/A N/A 29.53 in
(1000 mb)
W 5.8 mph
(W 9 kph)
- 10SM
13:35
Overcast
N/A N/A N/A 29.53 in
(1000 mb)
W 6.9 mph
(W 11 kph)
- 10SM
13:15
Overcast
N/A N/A N/A 29.53 in
(1000 mb)
NNW 3.5 mph
(NNW 6 kph)
- 10SM
12:55
Overcast
N/A N/A N/A 29.53 in
(1000 mb)
NNE 4.6 mph
(NNE 7 kph)
- 10SM
12:35
Overcast
N/A N/A N/A 29.56 in
(1001 mb)
NE 4.6 mph
(NE 7 kph)
- 10SM
12:15
Overcast
N/A N/A N/A 29.56 in
(1001 mb)
NE 4.6 mph
(NE 7 kph)
- 10SM
11:55
Overcast
N/A N/A N/A 29.56 in
(1001 mb)
NE 6.9 mph
(NE 11 kph)
0.02 in
(0.51 mm)
10SM
11:35
Overcast
N/A N/A N/A 29.56 in
(1001 mb)
N 4.6 mph
(N 7 kph)
0.02 in
(0.51 mm)
10SM
11:15
Mostly Cloudy
N/A N/A N/A 29.56 in
(1001 mb)
N 5.8 mph
(N 9 kph)
- 10SM
10:55
Partly Cloudy
N/A N/A N/A 29.56 in
(1001 mb)
NNW 6.9 mph
(NNW 11 kph)
- 10SM
10:35
Clear
N/A N/A N/A 29.56 in
(1001 mb)
NNW 6.9 mph
(NNW 11 kph)
- 10SM
10:15
Partly Cloudy
N/A N/A N/A 29.59 in
(1002 mb)
NNW 8.1 mph
(NNW 13 kph)
- 10SM
09:55
Mostly Cloudy
N/A N/A N/A 29.59 in
(1002 mb)
NNW 8.1 mph
(NNW 13 kph)
- 10SM
09:35
Partly Cloudy
N/A N/A N/A 29.59 in
(1002 mb)
NNW 10.4 mph
(NNW 17 kph)
- 10SM
09:15
Mostly Cloudy
57°F / 14°C 39°F / 4°C 51% 29.59 in
(1002 mb)
NW 6.9 mph
(NW 11 kph)
- 10SM
08:55
Overcast
N/A N/A N/A 29.59 in
(1002 mb)
NW 9.2 mph
(NW 15 kph)
- 10SM
08:35
Overcast
N/A N/A N/A 29.59 in
(1002 mb)
NNW 9.2 mph
(NNW 15 kph)
- 10SM
08:15
Overcast
N/A N/A N/A 29.59 in
(1002 mb)
NW 10.4 mph
(NW 17 kph)
- 10SM
07:55
Overcast
N/A N/A N/A 29.59 in
(1002 mb)
NW 9.2 mph
(NW 15 kph)
- 10SM
07:35
Overcast
N/A N/A N/A 29.59 in
(1002 mb)
NW 10.4 mph
(NW 17 kph)
- 10SM
07:15
Overcast
N/A N/A N/A 29.59 in
(1002 mb)
NW 9.2 mph
(NW 15 kph)
- 10SM
06:55
Overcast
N/A N/A N/A 29.59 in
(1002 mb)
NW 8.1 mph
(NW 13 kph)
- 10SM
06:35
Overcast
N/A N/A N/A 29.59 in
(1002 mb)
NW 8.1 mph
(NW 13 kph)
- 10SM
06:15
Overcast
N/A N/A N/A 29.59 in
(1002 mb)
NW 10.4 mph
(NW 17 kph)
- 10SM
05:55
Overcast
N/A N/A N/A 29.59 in
(1002 mb)
NW 8.1 mph
(NW 13 kph)
0.01 in
(0.25 mm)
10SM
05:35
Mostly Cloudy
N/A N/A N/A 29.59 in
(1002 mb)
NW 9.2 mph
(NW 15 kph)
0.01 in
(0.25 mm)
10SM
05:15
Partly Cloudy
N/A N/A N/A 29.59 in
(1002 mb)
NW 9.2 mph
(NW 15 kph)
- 10SM
04:55
Overcast
N/A N/A N/A 29.59 in
(1002 mb)
NW 9.2 mph
(NW 15 kph)
0.01 in
(0.25 mm)
10SM
04:35
Mostly Cloudy
N/A N/A N/A 29.59 in
(1002 mb)
NW 8.1 mph
(NW 13 kph)
0.01 in
(0.25 mm)
10SM
04:15
Clear
N/A N/A N/A 29.59 in
(1002 mb)
NW 8.1 mph
(NW 13 kph)
0.01 in
(0.25 mm)
10SM
03:55
Partly Cloudy
N/A N/A N/A 29.59 in
(1002 mb)
NW 6.9 mph
(NW 11 kph)
- 10SM
03:35
Mostly Cloudy
N/A N/A N/A 29.59 in
(1002 mb)
NW 6.9 mph
(NW 11 kph)
- 10SM
03:15
Partly Cloudy
N/A N/A N/A 29.59 in
(1002 mb)
NW 6.9 mph
(NW 11 kph)
- 10SM
02:55
Partly Cloudy
N/A N/A N/A 29.59 in
(1002 mb)
NW 8.1 mph
(NW 13 kph)
0.04 in
(1.02 mm)
10SM
02:35
Overcast
N/A N/A N/A 29.59 in
(1002 mb)
NW 5.8 mph
(NW 9 kph)
0.01 in
(0.25 mm)
10SM
02:15
Overcast
N/A N/A N/A 29.59 in
(1002 mb)
NW 6.9 mph
(NW 11 kph)
- 10SM
01:55
Overcast
N/A N/A N/A 29.59 in
(1002 mb)
NW 6.9 mph
(NW 11 kph)
- 10SM
01:35
Overcast
N/A N/A N/A 29.59 in
(1002 mb)
NW 6.9 mph
(NW 11 kph)
- 10SM
01:15
Overcast
N/A N/A N/A 29.59 in
(1002 mb)
NW 8.1 mph
(NW 13 kph)
- 10SM
00:55
Overcast
N/A N/A N/A 29.59 in
(1002 mb)
NNW 9.2 mph
(NNW 15 kph)
- 10SM
00:35
Overcast
N/A N/A N/A 29.59 in
(1002 mb)
NW 10.4 mph
(NW 17 kph)
- 10SM
00:15
Overcast
N/A N/A N/A 29.59 in
(1002 mb)
NW 10.4 mph
(NW 17 kph)
- 10SM
Time Weather Temperature Dewpoint Humidity Pressure Winds Precip Visibility


Weather for websites

WeatherForYou.com, LLC is not responsible for any damages or problems caused by this service. Current weather conditions are obtained from the closest station including government and personal stations which may have varying degrees of accuracy. Weather forecasts are derived from the NOAA NDFD. Like all things, this site belongs to Jesus Christ... He just trusts us to maintain it. If you have any questions or comments email webmaster@weatherforyou.com

Copyright © 2015, WeatherForYou.com LLC. All rights reserved.